User: anonymous   Login
Location: Unspecified
(0.0000°N, 0.0000°E)
Time: 03:56:54
(UTC+00:00)
Language:

IRS-1A - Orbit

View from above orbital plane
View from above orbital plane
View from above satellite
View from above satellite

Ground track
Ground track

The orbit data is extracted from the following two-line orbital elements,

1 18960U 88021A   18292.20474740  .00000149  00000-0  13994-3 0  9996
2 18960  99.2016 355.2924 0013856 335.6781  88.1100 13.96770492462816
Epoch (UTC): 19 October 2018 04:54:50
Eccentricity: 0.0013856
inclination: 99.2016°
perigee height: 895 km
apogee height: 915 km
right ascension of ascending node: 355.2924°
argument of perigee: 335.6781°
revolutions per day: 13.96770492
mean anomaly at epoch: 88.1100°
orbit number at epoch: 46281

The dashed part of the orbit path shows where the satellite is in the earth's shadow,  

DLR